Time,TemperatureF,DewpointF,PressureIn,WindDirection,WindDirectionDegrees,WindSpeedMPH,WindSpeedGustMPH,Humidity,HourlyPrecipIn,Conditions,Clouds,dailyrainin,SoftwareType,DateUTC
2013-12-08 00:06:00,1.0,-9.0,30.48,WSW,256,0.0,0.0,64,0.00,,,0.00,weatherlink.com 1.10,2013-12-08 08:06:00,
2013-12-08 00:21:00,0.6,-9.0,30.47,WSW,256,0.0,0.0,65,0.00,,,0.00,weatherlink.com 1.10,2013-12-08 08:21:00,
2013-12-08 00:36:00,0.4,-8.0,30.48,WSW,256,0.0,0.0,67,0.00,,,0.00,weatherlink.com 1.10,2013-12-08 08:36:00,
2013-12-08 00:51:00,0.4,-8.0,30.48,North,354,0.0,1.0,68,0.00,,,0.00,weatherlink.com 1.10,2013-12-08 08:51:00,
2013-12-08 01:06:00,0.6,-8.0,30.48,NNE,23,0.0,1.0,68,0.00,,,0.00,weatherlink.com 1.10,2013-12-08 09:06:00,
2013-12-08 01:22:00,0.5,-8.0,30.48,NNE,23,0.0,1.0,68,0.00,,,0.00,weatherlink.com 1.10,2013-12-08 09:22:00,
2013-12-08 01:36:00,0.3,-7.0,30.48,NNE,23,0.0,1.0,70,0.00,,,0.00,weatherlink.com 1.10,2013-12-08 09:36:00,
2013-12-08 01:52:00,-0.3,-7.0,30.48,NNE,23,0.0,0.0,72,0.00,,,0.00,weatherlink.com 1.10,2013-12-08 09:52:00,
2013-12-08 02:07:00,-0.2,-7.0,30.49,NNE,23,0.0,1.0,72,0.00,,,0.00,weatherlink.com 1.10,2013-12-08 10:07:00,
2013-12-08 02:23:00,-0.2,-7.0,30.49,NNE,23,0.0,1.0,72,0.00,,,0.00,weatherlink.com 1.10,2013-12-08 10:23:00,
2013-12-08 02:38:00,-0.6,-8.0,30.50,NNE,23,0.0,0.0,72,0.00,,,0.00,weatherlink.com 1.10,2013-12-08 10:38:00,
2013-12-08 02:53:00,-0.5,-7.0,30.50,NNE,23,0.0,1.0,75,0.00,,,0.00,weatherlink.com 1.10,2013-12-08 10:53:00,
2013-12-08 03:09:00,1.2,-5.0,30.50,North,11,0.0,1.0,76,0.00,,,0.00,weatherlink.com 1.10,2013-12-08 11:09:00,
2013-12-08 03:24:00,2.5,-4.0,30.50,ENE,72,0.0,1.0,74,0.00,,,0.00,weatherlink.com 1.10,2013-12-08 11:24:00,
2013-12-08 03:39:00,2.8,-4.0,30.50,NE,38,0.0,1.0,73,0.00,,,0.00,weatherlink.com 1.10,2013-12-08 11:39:00,
2013-12-08 03:56:00,3.0,-4.0,30.50,NE,38,0.0,0.0,73,0.00,,,0.00,weatherlink.com 1.10,2013-12-08 11:56:00,
2013-12-08 04:10:00,3.4,-3.0,30.49,NE,38,0.0,1.0,74,0.00,,,0.00,weatherlink.com 1.10,2013-12-08 12:10:00,
2013-12-08 04:26:00,3.7,-3.0,30.49,ENE,61,0.0,1.0,73,0.00,,,0.00,weatherlink.com 1.10,2013-12-08 12:26:00,
2013-12-08 04:41:00,4.0,-3.0,30.50,NE,39,0.0,1.0,73,0.00,,,0.00,weatherlink.com 1.10,2013-12-08 12:41:00,
2013-12-08 04:56:00,4.4,-3.0,30.49,ENE,65,0.0,1.0,73,0.00,,,0.00,weatherlink.com 1.10,2013-12-08 12:56:00,
2013-12-08 05:11:00,4.4,-3.0,30.50,NE,34,0.0,1.0,73,0.00,,,0.00,weatherlink.com 1.10,2013-12-08 13:11:00,
2013-12-08 05:25:00,4.6,-2.0,30.50,NE,34,0.0,1.0,73,0.00,,,0.00,weatherlink.com 1.10,2013-12-08 13:25:00,
2013-12-08 05:41:00,4.6,-3.0,30.52,NNE,30,0.0,2.0,72,0.00,,,0.00,weatherlink.com 1.10,2013-12-08 13:41:00,
2013-12-08 05:56:00,4.6,-3.0,30.52,NE,44,0.0,1.0,72,0.00,,,0.00,weatherlink.com 1.10,2013-12-08 13:56:00,
2013-12-08 06:12:00,4.8,-2.0,30.52,NE,37,1.0,2.0,73,0.00,,,0.00,weatherlink.com 1.10,2013-12-08 14:12:00,
2013-12-08 06:27:00,5.2,-2.0,30.53,NE,49,0.0,2.0,72,0.00,,,0.00,weatherlink.com 1.10,2013-12-08 14:27:00,
2013-12-08 06:43:00,5.4,-2.0,30.53,NE,40,0.0,2.0,71,0.00,,,0.00,weatherlink.com 1.10,2013-12-08 14:43:00,
2013-12-08 06:58:00,5.6,-2.0,30.53,NE,43,0.0,2.0,71,0.00,,,0.00,weatherlink.com 1.10,2013-12-08 14:58:00,
2013-12-08 07:13:00,5.8,-1.0,30.52,NNE,27,0.0,1.0,72,0.00,,,0.00,weatherlink.com 1.10,2013-12-08 15:13:00,
2013-12-08 07:28:00,5.9,-2.0,30.53,NNE,32,0.0,1.0,71,0.00,,,0.00,weatherlink.com 1.10,2013-12-08 15:28:00,
2013-12-08 07:44:00,6.1,-1.0,30.53,NE,37,0.0,1.0,71,0.00,,,0.00,weatherlink.com 1.10,2013-12-08 15:44:00,
2013-12-08 07:59:00,6.3,-1.0,30.54,NE,39,1.0,2.0,71,0.00,,,0.00,weatherlink.com 1.10,2013-12-08 15:59:00,
2013-12-08 08:14:00,6.3,-1.0,30.55,NNE,32,0.0,2.0,72,0.00,,,0.00,weatherlink.com 1.10,2013-12-08 16:14:00,
2013-12-08 08:31:00,6.7,-1.0,30.55,NE,36,0.0,2.0,71,0.00,,,0.00,weatherlink.com 1.10,2013-12-08 16:31:00,
2013-12-08 08:46:00,7.1,-1.0,30.56,ENE,62,0.0,3.0,70,0.00,,,0.00,weatherlink.com 1.10,2013-12-08 16:46:00,
2013-12-08 09:01:00,7.6,-1.0,30.57,North,355,2.0,3.0,69,0.00,,,0.00,weatherlink.com 1.10,2013-12-08 17:01:00,
2013-12-08 09:16:00,7.9,-1.0,30.55,North,357,0.0,2.0,68,0.00,,,0.00,weatherlink.com 1.10,2013-12-08 17:16:00,
2013-12-08 09:31:00,8.4,-1.0,30.56,NNW,340,1.0,2.0,66,0.00,,,0.00,weatherlink.com 1.10,2013-12-08 17:31:00,
2013-12-08 09:46:00,8.8,-1.0,30.56,NE,35,0.0,3.0,65,0.00,,,0.00,weatherlink.com 1.10,2013-12-08 17:46:00,
2013-12-08 10:01:00,9.6,0.0,30.57,North,358,1.0,4.0,64,0.00,,,0.00,weatherlink.com 1.10,2013-12-08 18:01:00,
2013-12-08 10:16:00,10.2,0.0,30.57,North,349,1.0,4.0,64,0.00,,,0.00,weatherlink.com 1.10,2013-12-08 18:16:00,
2013-12-08 10:32:00,10.4,0.0,30.57,NNW,330,0.0,3.0,63,0.00,,,0.00,weatherlink.com 1.10,2013-12-08 18:32:00,
2013-12-08 10:47:00,11.0,1.0,30.57,NE,36,1.0,2.0,63,0.00,,,0.00,weatherlink.com 1.10,2013-12-08 18:47:00,
2013-12-08 11:02:00,11.5,0.0,30.56,ENE,76,0.0,4.0,61,0.00,,,0.00,weatherlink.com 1.10,2013-12-08 19:02:00,
2013-12-08 11:17:00,12.8,1.0,30.56,NE,55,1.0,3.0,59,0.00,,,0.00,weatherlink.com 1.10,2013-12-08 19:17:00,
2013-12-08 11:32:00,12.8,0.0,30.56,NNE,32,0.0,4.0,58,0.00,,,0.00,weatherlink.com 1.10,2013-12-08 19:32:00,
2013-12-08 11:47:00,13.7,1.0,30.56,NNW,328,0.0,3.0,57,0.00,,,0.00,weatherlink.com 1.10,2013-12-08 19:47:00,
2013-12-08 12:03:00,14.0,0.0,30.56,SE,124,0.0,3.0,55,0.00,,,0.00,weatherlink.com 1.10,2013-12-08 20:03:00,
2013-12-08 12:18:00,14.7,1.0,30.55,NNE,21,0.0,3.0,54,0.00,,,0.00,weatherlink.com 1.10,2013-12-08 20:18:00,
2013-12-08 12:33:00,15.1,0.0,30.55,ENE,64,0.0,2.0,52,0.00,,,0.00,weatherlink.com 1.10,2013-12-08 20:33:00,
2013-12-08 12:48:00,15.7,0.0,30.55,SE,146,0.0,1.0,51,0.00,,,0.00,weatherlink.com 1.10,2013-12-08 20:48:00,
2013-12-08 13:03:00,15.9,0.0,30.55,NNE,32,1.0,3.0,50,0.00,,,0.00,weatherlink.com 1.10,2013-12-08 21:03:00,
2013-12-08 13:18:00,16.1,0.0,30.55,NW,311,0.0,4.0,49,0.00,,,0.00,weatherlink.com 1.10,2013-12-08 21:18:00,
2013-12-08 13:33:00,16.8,0.0,30.55,ESE,110,0.0,2.0,48,0.00,,,0.00,weatherlink.com 1.10,2013-12-08 21:33:00,
2013-12-08 13:48:00,17.3,1.0,30.56,ESE,122,0.0,3.0,48,0.00,,,0.00,weatherlink.com 1.10,2013-12-08 21:48:00,
2013-12-08 14:04:00,17.3,0.0,30.56,SE,130,1.0,2.0,47,0.00,,,0.00,weatherlink.com 1.10,2013-12-08 22:04:00,
2013-12-08 14:19:00,17.5,0.0,30.56,SSE,155,0.0,3.0,47,0.00,,,0.00,weatherlink.com 1.10,2013-12-08 22:19:00,
2013-12-08 14:35:00,17.3,0.0,30.57,South,172,0.0,2.0,47,0.00,,,0.00,weatherlink.com 1.10,2013-12-08 22:35:00,
2013-12-08 14:50:00,17.0,0.0,30.57,SE,134,0.0,2.0,47,0.00,,,0.00,weatherlink.com 1.10,2013-12-08 22:50:00,
2013-12-08 15:04:00,16.3,0.0,30.58,SW,214,0.0,3.0,48,0.00,,,0.00,weatherlink.com 1.10,2013-12-08 23:04:00,
2013-12-08 15:20:00,16.0,-1.0,30.58,SE,136,0.0,1.0,48,0.00,,,0.00,weatherlink.com 1.10,2013-12-08 23:20:00,
2013-12-08 15:35:00,15.7,-1.0,30.58,ESE,117,0.0,1.0,48,0.00,,,0.00,weatherlink.com 1.10,2013-12-08 23:35:00,
2013-12-08 15:51:00,15.2,-1.0,30.59,ESE,104,0.0,1.0,48,0.00,,,0.00,weatherlink.com 1.10,2013-12-08 23:51:00,
2013-12-08 16:08:00,13.4,-2.0,30.59,WSW,257,0.0,1.0,50,0.00,,,0.00,weatherlink.com 1.10,2013-12-09 00:08:00,
2013-12-08 16:23:00,11.7,-3.0,30.59,West,271,0.0,1.0,53,0.00,,,0.00,weatherlink.com 1.10,2013-12-09 00:23:00,
2013-12-08 16:38:00,11.5,-3.0,30.59,West,271,0.0,1.0,53,0.00,,,0.00,weatherlink.com 1.10,2013-12-09 00:38:00,
2013-12-08 16:53:00,10.7,-3.0,30.60,West,271,0.0,1.0,55,0.00,,,0.00,weatherlink.com 1.10,2013-12-09 00:53:00,
2013-12-08 17:08:00,10.0,-3.0,30.60,West,271,0.0,1.0,57,0.00,,,0.00,weatherlink.com 1.10,2013-12-09 01:08:00,
2013-12-08 17:23:00,10.2,-3.0,30.59,WSW,238,0.0,1.0,56,0.00,,,0.00,weatherlink.com 1.10,2013-12-09 01:23:00,
2013-12-08 17:38:00,10.0,-3.0,30.60,WSW,257,0.0,1.0,57,0.00,,,0.00,weatherlink.com 1.10,2013-12-09 01:38:00,
2013-12-08 17:53:00,10.2,-2.0,30.61,WSW,257,0.0,1.0,57,0.00,,,0.00,weatherlink.com 1.10,2013-12-09 01:53:00,
2013-12-08 18:08:00,10.1,-3.0,30.60,WSW,245,1.0,1.0,57,0.00,,,0.00,weatherlink.com 1.10,2013-12-09 02:08:00,
2013-12-08 18:24:00,9.5,-3.0,30.60,WSW,244,0.0,0.0,58,0.00,,,0.00,weatherlink.com 1.10,2013-12-09 02:24:00,
2013-12-08 18:38:00,9.1,-3.0,30.59,WSW,249,0.0,1.0,59,0.00,,,0.00,weatherlink.com 1.10,2013-12-09 02:38:00,
2013-12-08 18:54:00,7.7,-3.0,30.60,WSW,249,0.0,0.0,62,0.00,,,0.00,weatherlink.com 1.10,2013-12-09 02:54:00,
2013-12-08 19:10:00,7.7,-2.0,30.61,WSW,250,0.0,1.0,64,0.00,,,0.00,weatherlink.com 1.10,2013-12-09 03:10:00,
2013-12-08 19:25:00,7.2,-3.0,30.61,West,260,0.0,1.0,64,0.00,,,0.00,weatherlink.com 1.10,2013-12-09 03:25:00,
2013-12-08 19:40:00,7.0,-3.0,30.61,West,261,0.0,1.0,65,0.00,,,0.00,weatherlink.com 1.10,2013-12-09 03:40:00,
2013-12-08 19:55:00,8.2,-3.0,30.61,West,260,0.0,1.0,62,0.00,,,0.00,weatherlink.com 1.10,2013-12-09 03:55:00,
2013-12-08 20:11:00,6.8,-3.0,30.62,West,261,0.0,0.0,64,0.00,,,0.00,weatherlink.com 1.10,2013-12-09 04:11:00,
2013-12-08 20:26:00,6.8,-3.0,30.64,NE,35,1.0,2.0,65,0.00,,,0.00,weatherlink.com 1.10,2013-12-09 04:26:00,
2013-12-08 20:41:00,5.8,-3.0,30.65,NE,37,1.0,1.0,68,0.00,,,0.00,weatherlink.com 1.10,2013-12-09 04:41:00,
2013-12-08 20:58:00,5.9,-3.0,30.65,NNE,15,0.0,1.0,68,0.00,,,0.00,weatherlink.com 1.10,2013-12-09 04:58:00,
2013-12-08 21:13:00,6.3,-3.0,30.65,NNE,15,0.0,1.0,67,0.00,,,0.00,weatherlink.com 1.10,2013-12-09 05:13:00,
2013-12-08 21:28:00,5.6,-3.0,30.65,NNW,329,0.0,1.0,68,0.00,,,0.00,weatherlink.com 1.10,2013-12-09 05:28:00,
2013-12-08 21:43:00,5.7,-3.0,30.65,NNW,328,0.0,1.0,68,0.00,,,0.00,weatherlink.com 1.10,2013-12-09 05:43:00,
2013-12-08 21:58:00,5.6,-3.0,30.65,NNW,328,0.0,1.0,69,0.00,,,0.00,weatherlink.com 1.10,2013-12-09 05:58:00,
2013-12-08 22:13:00,5.8,-2.0,30.65,NNW,328,0.0,1.0,70,0.00,,,0.00,weatherlink.com 1.10,2013-12-09 06:13:00,
2013-12-08 22:28:00,5.2,-3.0,30.65,NNW,328,0.0,1.0,69,0.00,,,0.00,weatherlink.com 1.10,2013-12-09 06:28:00,
2013-12-08 22:43:00,3.8,-3.0,30.64,WNW,293,0.0,0.0,73,0.00,,,0.00,weatherlink.com 1.10,2013-12-09 06:43:00,
2013-12-08 22:58:00,3.9,-3.0,30.64,WNW,293,0.0,1.0,72,0.00,,,0.00,weatherlink.com 1.10,2013-12-09 06:58:00,
2013-12-08 23:14:00,3.8,-3.0,30.64,WNW,293,0.0,1.0,73,0.00,,,0.00,weatherlink.com 1.10,2013-12-09 07:14:00,
2013-12-08 23:29:00,3.8,-2.0,30.64,North,352,0.0,1.0,75,0.00,,,0.00,weatherlink.com 1.10,2013-12-09 07:29:00,
2013-12-08 23:44:00,3.9,-3.0,30.61,North,6,0.0,1.0,74,0.00,,,0.00,weatherlink.com 1.10,2013-12-09 07:44:00,